| time (UTC) | temp F | wind direction | speed MPH | gust MPH | rain 1hr in | rain 24hr in | rain mn in | humidity % | barometer mb |
| 20260506051017 | 52 | 0.0 | 0.0 | 0.00 | 0.77 | 0.60 | 93 | 1007.6 | |
| 20260506045019 | 52 | 0.0 | 0.0 | 0.00 | 0.92 | 0.60 | 93 | 1007.5 | |
| 20260506044017 | 52 | 0.0 | 0.0 | 0.00 | 0.92 | 0.60 | 93 | 1007.5 | |
| 20260506043017 | 52 | 0.0 | 0.0 | 0.00 | 0.93 | 0.60 | 93 | 1007.5 | |
| 20260506042017 | 52 | 0.0 | 0.0 | 0.00 | 0.93 | 0.60 | 93 | 1007.5 | |
| 20260506041017 | 52 | 0.0 | 1.0 | 0.00 | 0.93 | 0.60 | 93 | 1007.6 | |
| 20260506040018 | 52 | 0.0 | 0.0 | 0.01 | 0.93 | 0.60 | 93 | 1007.6 | |
| 20260506035017 | 52 | 0.0 | 0.0 | 0.02 | 0.93 | 0.60 | 92 | 1007.5 | |
| 20260506034017 | 52 | 0.0 | 0.0 | 0.04 | 0.93 | 0.60 | 92 | 1007.6 | |
| 20260506033017 | 52 | 0.0 | 2.0 | 0.06 | 0.93 | 0.60 | 93 | 1007.7 | |
| 20260506032017 | 52 | 0.0 | 1.0 | 0.06 | 0.93 | 0.60 | 92 | 1007.7 | |
| 20260506031017 | 52 | 0.0 | 2.0 | 0.09 | 0.93 | 0.60 | 92 | 1007.9 | |
| 20260506030017 | 52 | 0.0 | 0.0 | 0.14 | 0.92 | 0.59 | 92 | 1008.0 | |
| 20260506025037 | 52 | 0.0 | 0.0 | 0.17 | 0.91 | 0.57 | 92 | 1008.3 | |
| 20260506024017 | 52 | 0.0 | 0.0 | 0.17 | 0.89 | 0.56 | 92 | 1008.3 | |
| 20260506023017 | 52 | 0.0 | 1.0 | 0.15 | 0.87 | 0.54 | 92 | 1008.4 | |
| 20260506022017 | 52 | 0.0 | 0.0 | 0.14 | 0.87 | 0.54 | 92 | 1008.4 | |
| 20260506021039 | 52 | 0.0 | 1.0 | 0.12 | 0.84 | 0.50 | 92 | 1008.4 | |
| 20260506020017 | 52 | 248 | 1.0 | 3.0 | 0.06 | 0.79 | 0.45 | 92 | 1008.2 |
| 20260506015018 | 52 | 0.0 | 1.0 | 0.04 | 0.75 | 0.41 | 92 | 1008.0 | |
| 20260506014016 | 52 | 0.0 | 0.0 | 0.03 | 0.74 | 0.39 | 91 | 1008.0 | |
| 20260506013038 | 52 | 0.0 | 2.0 | 0.03 | 0.76 | 0.39 | 91 | 1007.6 | |
| 20260506012017 | 53 | 0.0 | 0.0 | 0.03 | 0.85 | 0.39 | 91 | 1007.5 | |
| 20260506011016 | 53 | 0.0 | 0.0 | 0.02 | 0.92 | 0.39 | 91 | 1007.8 | |
| 20260506010017 | 52 | 0.0 | 1.0 | 0.02 | 0.98 | 0.39 | 91 | 1008.2 | |
| 20260506005016 | 52 | 0.0 | 0.0 | 0.01 | 1.02 | 0.37 | 91 | 1008.5 | |
| 20260506004037 | 52 | 315 | 1.0 | 3.0 | 0.00 | 1.05 | 0.36 | 91 | 1008.4 |
| 20260506003058 | 53 | 0.0 | 2.0 | 0.00 | 1.07 | 0.36 | 91 | 1008.3 | |
| 20260506002057 | 52 | 0.0 | 0.0 | 0.00 | 1.09 | 0.36 | 91 | 1008.3 | |
| 20260506001016 | 52 | 0.0 | 1.0 | 0.00 | 1.11 | 0.36 | 91 | 1008.7 | |
| 20260506000017 | 52 | 0.0 | 1.0 | 0.03 | 1.12 | 0.36 | 91 | 1008.8 | |
| 20260505235036 | 53 | 0.0 | 2.0 | 0.09 | 1.13 | 0.36 | 91 | 1008.9 | |
| 20260505234017 | 53 | 293 | 1.0 | 3.0 | 0.16 | 1.14 | 0.36 | 91 | 1009.0 |
| 20260505233016 | 54 | 0.0 | 2.0 | 0.21 | 1.16 | 0.36 | 92 | 1009.3 | |
| 20260505232017 | 54 | 0.0 | 2.0 | 0.25 | 1.17 | 0.36 | 91 | 1009.5 | |
| 20260505231016 | 54 | 0.0 | 1.0 | 0.31 | 1.17 | 0.36 | 92 | 1010.0 | |
| 20260505230017 | 54 | 0.0 | 2.0 | 0.33 | 1.14 | 0.33 | 92 | 1010.6 | |
| 20260505225016 | 54 | 0.0 | 0.0 | 0.31 | 1.09 | 0.28 | 91 | 1010.7 | |
| 20260505224016 | 55 | 203 | 1.0 | 3.0 | 0.24 | 1.02 | 0.20 | 91 | 1011.3 |
| 20260505223036 | 55 | 0.0 | 0.0 | 0.19 | 0.97 | 0.15 | 91 | 1010.9 | |
| 20260505222016 | 55 | 0.0 | 3.0 | 0.15 | 0.93 | 0.11 | 91 | 1011.0 | |
| 20260505221016 | 55 | 0.0 | 1.0 | 0.09 | 0.87 | 0.06 | 91 | 1011.1 | |
| 20260505220016 | 55 | 0.0 | 0.0 | 0.04 | 0.82 | 0.82 | 91 | 1011.1 | |
| 20260505215016 | 55 | 0.0 | 0.0 | 0.01 | 0.79 | 0.79 | 91 | 1010.9 | |
| 20260505214016 | 55 | 0.0 | 0.0 | 0.00 | 0.78 | 0.78 | 90 | 1010.6 | |
| 20260505213016 | 55 | 0.0 | 0.0 | 0.00 | 0.78 | 0.78 | 90 | 1010.9 | |
| 20260505212016 | 55 | 0.0 | 0.0 | 0.00 | 0.78 | 0.78 | 90 | 1011.1 | |
| 20260505211118 | 55 | 0.0 | 0.0 | 0.00 | 0.78 | 0.78 | 90 | 1011.4 | |
| 20260505210017 | 55 | 0.0 | 0.0 | 0.00 | 0.78 | 0.78 | 90 | 1011.5 | |
| 20260505205036 | 55 | 0.0 | 1.0 | 0.00 | 0.78 | 0.78 | 90 | 1011.3 | |
| 20260505204016 | 55 | 0.0 | 1.0 | 0.00 | 0.78 | 0.78 | 89 | 1011.3 | |
| 20260505203016 | 55 | 0.0 | 0.0 | 0.00 | 0.80 | 0.78 | 89 | 1011.3 | |
| 20260505202056 | 55 | 0.0 | 0.0 | 0.00 | 0.83 | 0.78 | 89 | 1011.0 | |
| 20260505201016 | 55 | 0.0 | 0.0 | 0.00 | 0.87 | 0.78 | 89 | 1011.1 | |
| 20260505200016 | 55 | 0.0 | 1.0 | 0.00 | 0.87 | 0.78 | 89 | 1011.1 | |
| 20260505195016 | 55 | 0.0 | 0.0 | 0.00 | 0.87 | 0.78 | 88 | 1011.2 | |
| 20260505194015 | 56 | 0.0 | 0.0 | 0.00 | 0.87 | 0.78 | 88 | 1011.2 | |
| 20260505193016 | 57 | 0.0 | 0.0 | 0.00 | 0.88 | 0.78 | 88 | 1011.1 | |
| 20260505192016 | 58 | 0.0 | 1.0 | 0.00 | 0.88 | 0.78 | 88 | 1010.9 | |
| 20260505191016 | 58 | 0.0 | 0.0 | 0.00 | 0.90 | 0.78 | 88 | 1010.8 | |
| 20260505190017 | 58 | 0.0 | 0.0 | 0.00 | 0.91 | 0.78 | 88 | 1010.6 | |
| 20260505185016 | 59 | 0.0 | 0.0 | 0.00 | 0.91 | 0.78 | 88 | 1010.9 | |
| 20260505184016 | 59 | 0.0 | 0.0 | 0.00 | 0.91 | 0.78 | 88 | 1011.0 | |
| 20260505183015 | 59 | 0.0 | 0.0 | 0.00 | 0.91 | 0.78 | 88 | 1011.0 | |
| 20260505182015 | 60 | 0.0 | 0.0 | 0.00 | 0.91 | 0.78 | 88 | 1011.0 | |
| 20260505181015 | 60 | 0.0 | 0.0 | 0.00 | 0.91 | 0.78 | 88 | 1010.8 | |
| 20260505180017 | 60 | 0.0 | 0.0 | 0.00 | 0.91 | 0.78 | 88 | 1010.8 | |
| 20260505175017 | 60 | 0.0 | 0.0 | 0.00 | 0.92 | 0.78 | 89 | 1010.9 | |
| 20260505174017 | 60 | 0.0 | 1.0 | 0.00 | 0.96 | 0.78 | 89 | 1010.9 | |
| 20260505173017 | 61 | 0.0 | 0.0 | 0.00 | 0.97 | 0.78 | 89 | 1010.9 | |
| 20260505172017 | 61 | 0.0 | 0.0 | 0.00 | 0.97 | 0.78 | 88 | 1011.0 | |
| 20260505171017 | 61 | 0.0 | 0.0 | 0.00 | 0.98 | 0.78 | 88 | 1011.2 | |
| 20260505170036 | 61 | 0.0 | 0.0 | 0.00 | 0.98 | 0.78 | 88 | 1011.1 | |
| 20260505165040 | 61 | 0.0 | 0.0 | 0.00 | 0.98 | 0.78 | 87 | 1011.1 | |
| 20260505164017 | 62 | 0.0 | 0.0 | 0.00 | 0.98 | 0.78 | 87 | 1011.2 | |
| 20260505163038 | 62 | 0.0 | 0.0 | 0.00 | 0.98 | 0.78 | 88 | 1011.2 | |
| 20260505162057 | 62 | 0.0 | 0.0 | 0.00 | 0.98 | 0.78 | 87 | 1011.3 | |
| 20260505161017 | 62 | 0.0 | 0.0 | 0.00 | 0.99 | 0.78 | 87 | 1011.1 | |
| 20260505153018 | 62 | 113 | 1.0 | 3.0 | 0.00 | 1.00 | 0.78 | 87 | 1011.3 |
| 20260505152017 | 62 | 225 | 1.0 | 3.0 | 0.00 | 1.00 | 0.78 | 88 | 1011.1 |
| 20260505151017 | 62 | 225 | 1.0 | 2.0 | 0.00 | 1.00 | 0.78 | 90 | 1011.0 |
| 20260505125037 | 60 | 113 | 1.0 | 4.0 | 0.02 | 1.00 | 0.78 | 93 | 1011.6 |
| 20260505124018 | 60 | 135 | 1.0 | 3.0 | 0.02 | 0.99 | 0.77 | 93 | 1011.7 |
| 20260505123018 | 60 | 0.0 | 2.0 | 0.01 | 0.98 | 0.76 | 93 | 1011.5 | |
| 20260505122017 | 60 | 0.0 | 1.0 | 0.01 | 0.98 | 0.76 | 93 | 1011.5 | |
| 20260505121037 | 60 | 113 | 1.0 | 3.0 | 0.00 | 0.98 | 0.76 | 93 | 1011.5 |
| 20260505120018 | 60 | 0.0 | 1.0 | 0.00 | 0.98 | 0.76 | 93 | 1011.5 | |
| 20260505115016 | 60 | 0.0 | 1.0 | 0.00 | 0.98 | 0.76 | 94 | 1011.6 | |
| 20260505114016 | 60 | 0.0 | 0.0 | 0.00 | 0.98 | 0.76 | 94 | 1011.5 | |
| 20260505113017 | 60 | 0.0 | 0.0 | 0.00 | 0.98 | 0.76 | 94 | 1011.5 | |
| 20260505112016 | 59 | 0.0 | 1.0 | 0.00 | 0.98 | 0.76 | 94 | 1011.6 | |
| 20260505111017 | 59 | 158 | 1.0 | 2.0 | 0.00 | 0.98 | 0.76 | 94 | 1011.7 |
| 20260505102017 | 58 | 0.0 | 1.0 | 0.02 | 0.98 | 0.76 | 94 | 1011.6 | |
| 20260505101016 | 57 | 0.0 | 1.0 | 0.02 | 0.98 | 0.76 | 94 | 1011.7 | |
| 20260505100017 | 57 | 0.0 | 0.0 | 0.00 | 0.96 | 0.74 | 94 | 1011.8 | |
| 20260505095037 | 57 | 0.0 | 2.0 | 0.01 | 0.96 | 0.74 | 94 | 1011.8 | |
| 20260505094016 | 57 | 113 | 1.0 | 5.0 | 0.03 | 0.96 | 0.74 | 93 | 1011.8 |
| 20260505093018 | 58 | 0.0 | 2.0 | 0.04 | 0.96 | 0.74 | 94 | 1011.7 | |
| 20260505092036 | 58 | 0.0 | 2.0 | 0.05 | 0.96 | 0.74 | 94 | 1011.6 | |
| 20260505091016 | 57 | 0.0 | 1.0 | 0.05 | 0.96 | 0.74 | 94 | 1011.5 | |
| 20260505090016 | 57 | 0.0 | 0.0 | 0.06 | 0.96 | 0.74 | 94 | 1011.5 | |
| 20260505085036 | 57 | 0.0 | 0.0 | 0.07 | 0.95 | 0.73 | 94 | 1011.5 | |
| 20260505084016 | 57 | 0.0 | 1.0 | 0.05 | 0.93 | 0.71 | 94 | 1011.5 | |
| 20260505083018 | 57 | 0.0 | 0.0 | 0.05 | 0.92 | 0.70 | 94 | 1011.4 | |
| 20260505082016 | 57 | 0.0 | 1.0 | 0.04 | 0.91 | 0.69 | 94 | 1011.3 | |
| 20260505081017 | 57 | 0.0 | 1.0 | 0.04 | 0.91 | 0.69 | 94 | 1011.3 | |
| 20260505080015 | 57 | 0.0 | 1.0 | 0.03 | 0.91 | 0.69 | 94 | 1011.2 | |
| 20260505075018 | 57 | 0.0 | 0.0 | 0.01 | 0.88 | 0.66 | 94 | 1011.3 | |
| 20260505074016 | 57 | 0.0 | 0.0 | 0.01 | 0.88 | 0.66 | 94 | 1011.2 | |
| 20260505073016 | 57 | 0.0 | 0.0 | 0.01 | 0.87 | 0.65 | 94 | 1011.2 | |
| 20260505072016 | 57 | 0.0 | 0.0 | 0.01 | 0.87 | 0.65 | 94 | 1011.2 | |
| 20260505071016 | 57 | 0.0 | 0.0 | 0.01 | 0.87 | 0.65 | 94 | 1011.1 | |
| 20260505070017 | 57 | 0.0 | 0.0 | 0.01 | 0.87 | 0.65 | 94 | 1011.2 | |
| 20260505065016 | 57 | 0.0 | 1.0 | 0.01 | 0.87 | 0.65 | 94 | 1011.0 | |
| 20260505064015 | 57 | 0.0 | 0.0 | 0.01 | 0.87 | 0.65 | 94 | 1010.9 | |
| 20260505063017 | 57 | 0.0 | 0.0 | 0.00 | 0.87 | 0.65 | 94 | 1010.9 | |
| 20260505062016 | 57 | 0.0 | 0.0 | 0.00 | 0.87 | 0.65 | 94 | 1010.7 | |
| 20260505061015 | 56 | 0.0 | 0.0 | 0.00 | 0.87 | 0.65 | 94 | 1010.7 | |
| 20260505060016 | 56 | 0.0 | 0.0 | 0.07 | 0.87 | 0.65 | 93 | 1010.4 | |
| 20260505055015 | 56 | 0.0 | 0.0 | 0.15 | 0.87 | 0.65 | 93 | 1010.4 |